(114851) = 2003 PZ5

Discovered at Socorro on 2003-08-01 by LINEAR.

Orbit

Orbit type: Main Belt

Note: WebGL enabled browser required.

epoch2024-03-31.0
epoch JD2460400.5
perihelion date2021-02-08.35724
perihelion JD2459253.85724
argument of perihelion (°)170.77987
ascending node (°)171.28146
inclination (°)6.40389
eccentricity0.1495671
perihelion distance (AU)1.9521330
Tisserand w.r.t. Jupiter3.6
ΔV w.r.t. Earth (km/sec)8.9
semimajor axis (AU)2.2954581
mean anomaly (°)324.95870
mean daily motion (°/day)0.28340010
aphelion distance (AU)2.639
period (years)3.48
P-vector [x]0.95153833
P-vector [y]-0.28878537
P-vector [z]-0.10572521
Q-vector [x]0.30706510
Q-vector [y]0.91108821
Q-vector [z]0.27500780
absolute magnitude16.9
phase slope0.15
uncertainty0
referenceE2024-G02
observations used526
oppositions17
arc length (days)8200
first opposition used2000
last opposition used2023
residual rms (arc-secs)0.76
perturbers coarse indicatorM-v
perturbers precise indicator003Ek
first observation date used2000-11-27.0
last observation date used2023-05-11.0
computer nameMPCLINUX
JD of orbit computation2456465.479227
perihelion JD uncertainty (days)5.1003E-05
argument of perihelion uncertainty (°)3.8549E-05
ascending node uncertainty (°)3.5623E-05
inclination uncertainty (°)5.1105E-06
eccentricity uncertainty 5.0617E-08
perihelion distance uncertainty (AU)1.1935E-07
Minimum Orbit Intersection Distances (in AU)
for orbit epoch: 2460400.5, reference: E2024-G02
Mercury1.56225
Venus1.22793
Earth0.94433
Mars0.57137
Jupiter2.7444
Saturn6.58566
Uranus15.8019
Neptune27.6427

Observations

538 total observations over interval: 2000 11 27.28819 – 2023 05 11.333618
These data are available for download (format description).

Date (UT) J2000 RA J2000 Dec Magn Location Ref
2000 11 27.28819 04 41 25.54 +10 58 27.4 19.0   704 – Lincoln Laboratory ETS, New Mexico MPS 84072
2000 11 27.31717 04 41 23.63 +10 58 22.5 19.4   704 – Lincoln Laboratory ETS, New Mexico MPS 84072
2000 11 27.33167 04 41 22.56 +10 58 19.5 19.7   704 – Lincoln Laboratory ETS, New Mexico MPS 84072
2000 11 27.34616 04 41 21.65 +10 58 16.5 19.8   704 – Lincoln Laboratory ETS, New Mexico MPS 84072
2002 03 21.24882 12 05 23.44 +01 13 26.0 20.1 V 691 – Steward Observatory, Kitt Peak-Spacewatch MPS 84072
2002 03 21.28049 12 05 21.66 +01 13 42.0 20.3 V 691 – Steward Observatory, Kitt Peak-Spacewatch MPS 84072
2002 03 21.30149 12 05 20.48 +01 13 52.5 20.8 V 691 – Steward Observatory, Kitt Peak-Spacewatch MPS 84072
2002 04 05.33411 11 52 06.53 +03 15 18.6 22.4 V 291 – LPL/Spacewatch II MPS 84072
2002 04 05.35563 11 52 05.37 +03 15 28.4 22.7 V 291 – LPL/Spacewatch II MPS 84072
2002 04 05.37556 11 52 04.36 +03 15 37.2 21.9 V 291 – LPL/Spacewatch II MPS 84072
2003 08 01.33831 22 30 14.64 -03 06 49.4 19.3   704 – Lincoln Laboratory ETS, New Mexico MPS 82739
2003 08 01.34871 22 30 14.43 -03 06 52.7 19.3   704 – Lincoln Laboratory ETS, New Mexico MPS 82739
2003 08 01.35914 22 30 14.13 -03 06 56.3 19.1   704 – Lincoln Laboratory ETS, New Mexico MPS 82739
2003 08 01.36950 22 30 13.85 -03 06 59.4 19.5   704 – Lincoln Laboratory ETS, New Mexico MPS 82739
2003 08 01.37990 22 30 13.59 -03 07 01.9 19.6   704 – Lincoln Laboratory ETS, New Mexico MPS 82739
2003 08 05.32752 22 28 33.34 -03 28 53.3 19.0   704 – Lincoln Laboratory ETS, New Mexico MPS 82739
2003 08 05.33797 22 28 33.01 -03 28 57.6 18.8   704 – Lincoln Laboratory ETS, New Mexico MPS 82739
2003 08 05.35904 22 28 32.31 -03 29 05.4 18.8   704 – Lincoln Laboratory ETS, New Mexico MPS 82739
2003 08 05.36958 22 28 32.03 -03 29 09.3 19.2   704 – Lincoln Laboratory ETS, New Mexico MPS 82739
2003 08 22.34229 22 17 37.63 -05 44 15.1 19.2   608 – Haleakala-AMOS MPS 83104
2003 08 22.35341 22 17 37.08 -05 44 21.6 19.2   608 – Haleakala-AMOS MPS 83104
2003 08 22.36399 22 17 36.56 -05 44 27.2 19.0   608 – Haleakala-AMOS MPS 83104
2003 08 24.26731 22 16 09.30 -06 02 39.9 18.7   704 – Lincoln Laboratory ETS, New Mexico MPS 83433
2003 08 24.27965 22 16 08.72 -06 02 47.2 18.7   704 – Lincoln Laboratory ETS, New Mexico MPS 83433
2003 08 24.29285 22 16 08.06 -06 02 55.3 18.6   704 – Lincoln Laboratory ETS, New Mexico MPS 83433
2003 08 24.30613 22 16 07.41 -06 03 03.2 19.0   704 – Lincoln Laboratory ETS, New Mexico MPS 83433
2003 08 24.31965 22 16 06.78 -06 03 11.4 18.8   704 – Lincoln Laboratory ETS, New Mexico MPS 83433
2003 08 27.92370 22 13 20.64 -06 38 33.7 17.9 R 106 – Crni Vrh MPS 83433
2003 08 27.93676 22 13 20.05 -06 38 41.1 18.4 R 106 – Crni Vrh MPS 83433
2003 08 27.95148 22 13 19.33 -06 38 49.9 18.3 R 106 – Crni Vrh MPS 83433
2003 08 28.26567 22 13 04.91 -06 41 54.2 18.8   704 – Lincoln Laboratory ETS, New Mexico MPS 83433
2003 08 28.27965 22 13 04.25 -06 42 03.3 18.6   704 – Lincoln Laboratory ETS, New Mexico MPS 83433
2003 08 28.29372 22 13 03.55 -06 42 11.8 18.1   704 – Lincoln Laboratory ETS, New Mexico MPS 83433
2003 08 28.30740 22 13 02.90 -06 42 19.7 18.8   704 – Lincoln Laboratory ETS, New Mexico MPS 83433
2003 09 01.24449 22 10 04.51 -07 21 36.3 18.6   704 – Lincoln Laboratory ETS, New Mexico MPS 84072
2003 09 01.25635 22 10 03.96 -07 21 43.9 18.9   704 – Lincoln Laboratory ETS, New Mexico MPS 84072
2003 09 01.26810 22 10 03.36 -07 21 51.2 19.0   704 – Lincoln Laboratory ETS, New Mexico MPS 84072
2003 09 01.27996 22 10 02.78 -07 21 58.0 19.0   704 – Lincoln Laboratory ETS, New Mexico MPS 84072
2003 09 01.29185 22 10 02.28 -07 22 06.0 18.5   704 – Lincoln Laboratory ETS, New Mexico MPS 84072
2003 09 17.17902 22 00 21.66 -09 51 13.5 18.7 R 699 – Lowell Observatory-LONEOS MPS 85244
2003 09 17.19736 22 00 21.12 -09 51 22.1   699 – Lowell Observatory-LONEOS MPS 85244
2003 09 17.21564 22 00 20.56 -09 51 32.0   699 – Lowell Observatory-LONEOS MPS 85244
2003 09 17.23400 22 00 20.04 -09 51 41.2   699 – Lowell Observatory-LONEOS MPS 85244
2003 09 17.24551 22 00 19.82 -09 51 44.0 19.6   704 – Lincoln Laboratory ETS, New Mexico MPS 84551
2003 09 17.25852 22 00 19.52 -09 51 52.3 19.3   704 – Lincoln Laboratory ETS, New Mexico MPS 84551
2003 09 17.27082 22 00 19.04 -09 51 59.0 19.5   704 – Lincoln Laboratory ETS, New Mexico MPS 84551
2003 09 17.28292 22 00 18.87 -09 52 05.8 19.2   704 – Lincoln Laboratory ETS, New Mexico MPS 84551
2003 09 18.17548 21 59 56.68 -09 59 26.7 18.8 R 699 – Lowell Observatory-LONEOS MPS 85244
2003 09 18.19296 21 59 56.26 -09 59 34.3 18.9 R 699 – Lowell Observatory-LONEOS MPS 85244
2003 09 18.19378 21 59 56.24 -09 59 35.7   699 – Lowell Observatory-LONEOS MPS 85244
2003 09 18.21124 21 59 55.71 -09 59 43.1   699 – Lowell Observatory-LONEOS MPS 85244
2003 09 18.21207 21 59 55.70 -09 59 44.3   699 – Lowell Observatory-LONEOS MPS 85244
2003 09 18.22961 21 59 55.30 -09 59 52.9   699 – Lowell Observatory-LONEOS MPS 85244
2003 09 18.23043 21 59 55.17 -09 59 53.9   699 – Lowell Observatory-LONEOS MPS 85244
2003 09 18.24778 21 59 54.76 -10 00 02.1   699 – Lowell Observatory-LONEOS MPS 85244
2003 09 28.37555 21 57 25.35 -11 12 06.7 20.2   608 – Haleakala-AMOS MPS 86234
2003 09 28.38579 21 57 25.22 -11 12 10.9 19.8   608 – Haleakala-AMOS MPS 86234
2003 09 28.39613 21 57 25.22 -11 12 14.1 20.1   608 – Haleakala-AMOS MPS 86234
2003 10 01.10894 21 57 19.91 -11 27 36.5 18.9 R 699 – Lowell Observatory-LONEOS MPS 86932
2003 10 01.11364 21 57 19.95 -11 27 38.5 19.7 V 691 – Steward Observatory, Kitt Peak-Spacewatch MPS 86234
2003 10 01.12551 21 57 19.92 -11 27 42.6   699 – Lowell Observatory-LONEOS MPS 86932
2003 10 01.14244 21 57 19.90 -11 27 48.7   699 – Lowell Observatory-LONEOS MPS 86932
2003 10 01.14392 21 57 19.90 -11 27 48.0 19.7 V 691 – Steward Observatory, Kitt Peak-Spacewatch MPS 86234
2003 10 01.15888 21 57 19.86 -11 27 54.2   699 – Lowell Observatory-LONEOS MPS 86932
2003 10 01.17242 21 57 19.83 -11 27 57.5 19.7 V 691 – Steward Observatory, Kitt Peak-Spacewatch MPS 86234
2003 10 15.08562 22 00 45.14 -12 18 22.3 19.3 R 699 – Lowell Observatory-LONEOS MPS 88046
2003 10 15.10308 22 00 45.65 -12 18 25.1   699 – Lowell Observatory-LONEOS MPS 88046
2003 10 15.12049 22 00 46.04 -12 18 27.8   699 – Lowell Observatory-LONEOS MPS 88046
2003 10 15.13796 22 00 46.47 -12 18 28.2   699 – Lowell Observatory-LONEOS MPS 88046
2003 10 24.17359 22 06 16.54 -12 26 16.9 20.2   704 – Lincoln Laboratory ETS, New Mexico MPS 88046
2003 10 24.20167 22 06 17.68 -12 26 17.0 19.9   704 – Lincoln Laboratory ETS, New Mexico MPS 88046
2003 10 24.21582 22 06 18.34 -12 26 16.9 19.9   704 – Lincoln Laboratory ETS, New Mexico MPS 88046
2003 11 24.10556 22 40 15.96 -10 45 04.1 19.8 R 695 – Kitt Peak MPS 93702
2003 11 24.15192 22 40 19.75 -10 44 47.4   695 – Kitt Peak MPS 93702
2005 01 13.41245 09 15 48.95 +08 50 14.2 20.8 V 691 – Steward Observatory, Kitt Peak-Spacewatch MPS 124082
2005 01 13.43769 09 15 47.72 +08 50 20.8 20.4 V 691 – Steward Observatory, Kitt Peak-Spacewatch MPS 124082
2005 01 13.46322 09 15 46.41 +08 50 27.1 20.6 V 691 – Steward Observatory, Kitt Peak-Spacewatch MPS 124082
2005 02 02.15890 08 57 07.16 +10 37 29.7 20.3 V 691 – Steward Observatory, Kitt Peak-Spacewatch MPS 125674
2005 02 02.18469 08 57 05.56 +10 37 39.5 20.2 V 691 – Steward Observatory, Kitt Peak-Spacewatch MPS 125674
2005 02 02.21028 08 57 03.96 +10 37 49.6 20.1 V 691 – Steward Observatory, Kitt Peak-Spacewatch MPS 125674
2005 03 13.21256 08 28 41.67 +14 25 30.9 20.4 R G96 – Mt. Lemmon Survey MPS 129053
2005 03 13.21916 08 28 41.57 +14 25 32.7 20.4 R G96 – Mt. Lemmon Survey MPS 129053
2005 03 13.22572 08 28 41.46 +14 25 34.5 20.7 R G96 – Mt. Lemmon Survey MPS 129053
2005 03 13.23235 08 28 41.30 +14 25 36.0 19.1 R G96 – Mt. Lemmon Survey MPS 129053
2006 05 09.32697 16 18 28.04 -11 05 59.1 19.2 V G96 – Mt. Lemmon Survey MPS 171571
2006 05 09.33149 16 18 27.82 -11 05 57.7 19.3 V G96 – Mt. Lemmon Survey MPS 171571
2006 05 09.33605 16 18 27.57 -11 05 56.5 19.5 V G96 – Mt. Lemmon Survey MPS 171571
2006 05 09.34039 16 18 27.36 -11 05 54.9 19.4 V G96 – Mt. Lemmon Survey MPS 171571
2006 05 22.35529 16 06 20.15 -10 00 07.7   691 – Steward Observatory, Kitt Peak-Spacewatch MPS 172664
